CW9356 Weather Reports


time (UTC)temp
C
wind
direction
speed
KPH
gust
KPH
rain 1hr
cm
rain 24hr
cm
rain mn
cm
humidity
%
barometer
mb
20260510220701 22 290 0.0 0.0 0.00 0.05 0.03 29 1019.6
20260510215139 21 217 0.0 0.0 0.00 0.05 0.03 32 1019.9
20260510213714 21 121 0.0 0.0 0.00 0.05 0.03 35 1020.0
20260510212147 21 86 0.0 0.0 0.00 0.05 0.03 33 1020.0
20260510210728 21 51 0.0 0.0 0.00 0.05 0.03 37 1020.1
20260510210625 21 51 0.0 0.0 0.00 0.05 0.03 37 1020.1
20260510205138 21 88 0.0 1.6 0.00 0.05 0.03 35 1020.2
20260510203632 21 296 0.0 0.0 0.00 0.05 0.03 35 1020.3
20260510202151 21 19 0.0 4.8 0.00 0.05 0.03 35 1020.4
20260510200645 21 313 0.0 3.2 0.00 0.05 0.03 32 1020.5
20260510195220 21 297 0.0 1.6 0.00 0.05 0.03 34 1020.6
20260510193716 21 36 0.0 0.0 0.00 0.05 0.03 35 1020.7
20260510193634 21 36 0.0 0.0 0.00 0.05 0.03 35 1020.7
20260510192127 21 90 0.0 0.0 0.00 0.05 0.03 32 1020.8
20260510190643 21 345 0.0 12.9 0.00 0.05 0.03 34 1021.0
20260510185120 21 86 0.0 0.0 0.00 0.05 0.03 40 1021.2
20260510183736 20 341 0.0 0.0 0.00 0.05 0.03 38 1021.2
20260510183653 20 341 0.0 0.0 0.00 0.05 0.03 38 1021.2
20260510182147 19 17 0.0 1.6 0.00 0.05 0.03 39 1021.2
20260510180646 19 101 0.0 0.0 0.00 0.05 0.03 40 1021.3
20260510175159 18 323 0.0 0.0 0.00 0.05 0.03 41 1021.4
20260510175117 18 323 0.0 0.0 0.00 0.05 0.03 41 1021.4
20260510173633 18 90 0.0 0.0 0.00 0.05 0.03 44 1021.5
20260510172130 18 136 0.0 0.0 0.00 0.05 0.03 46 1021.7
20260510170726 17 54 0.0 0.0 0.00 0.05 0.03 48 1021.8
20260510170644 17 54 0.0 0.0 0.00 0.05 0.03 48 1021.8
20260510165138 17 137 0.0 0.0 0.00 0.05 0.03 50 1021.6
20260510163658 16 115 0.0 0.0 0.00 0.05 0.03 51 1021.6
20260510162129 16 332 0.0 0.0 0.00 0.05 0.03 54 1021.6
20260510160648 15 116 0.0 3.2 0.00 0.05 0.03 52 1021.4
20260510155141 15 124 0.0 0.0 0.00 0.05 0.03 53 1021.4
20260510153616 14 128 0.0 6.4 0.00 0.05 0.03 56 1021.2
20260510152134 13 126 0.0 0.0 0.00 0.05 0.03 62 1021.2
20260510150628 13 119 0.0 0.0 0.00 0.05 0.03 62 1021.1
20260510145147 13 116 0.0 0.0 0.00 0.05 0.03 64 1021.3
20260510143640 12 155 0.0 0.0 0.00 0.05 0.03 65 1021.4
20260510142133 12 165 0.0 0.0 0.00 0.05 0.03 66 1021.3
20260510140712 12 165 0.0 0.0 0.00 0.05 0.03 66 1021.0
20260510135143 12 165 0.0 0.0 0.00 0.05 0.03 66 1020.4
20260510133638 12 59 0.0 0.0 0.00 0.05 0.03 67 1020.2
20260510132115 12 164 0.0 0.0 0.00 0.05 0.03 68 1019.5
20260510130629 11 53 0.0 0.0 0.00 0.05 0.03 68 1019.9
20260510125122 11 94 0.0 0.0 0.00 0.05 0.03 69 1019.4
20260510123642 11 76 0.0 0.0 0.00 0.05 0.03 70 1018.9
20260510122135 11 38 0.0 0.0 0.00 0.05 0.03 73 1018.4
20260510120655 11 39 0.0 0.0 0.00 0.05 0.03 75 1018.4
20260510115127 11 9 0.0 0.0 0.00 0.05 0.03 74 1017.8
20260510113623 11 58 0.0 0.0 0.03 0.05 0.03 76 1017.1
20260510112141 11 44 0.0 0.0 0.03 0.05 0.03 76 1017.3
20260510110615 11 33 0.0 0.0 0.03 0.05 0.03 76 1017.1
20260510105133 12 149 0.0 1.6 0.03 0.05 0.03 77 1016.4
20260510103708 12 37 0.0 0.0 0.00 0.03 0.00 77 1016.2
20260510102118 12 53 0.0 4.8 0.00 0.03 0.00 75 1015.7
20260510100616 13 51 0.0 3.2 0.00 0.03 0.00 74 1016.1
20260510095130 13 24 0.0 1.6 0.00 0.03 0.00 75 1016.1
20260510093628 13 74 0.0 0.0 0.00 0.03 0.00 77 1016.5
20260510092203 13 308 0.0 0.0 0.00 0.03 0.00 77 1016.2
20260510090615 12 321 0.0 0.0 0.00 0.03 0.00 78 1016.2
20260510085114 12 317 0.0 0.0 0.00 0.03 0.00 79 1016.0
20260510083629 12 301 0.0 0.0 0.00 0.03 0.00 79 1015.7
20260510082127 12 325 0.0 0.0 0.00 0.03 0.00 78 1015.2
20260510080723 12 340 0.0 0.0 0.00 0.03 0.00 77 1014.9
20260510075155 12 348 0.0 0.0 0.00 0.03 0.00 77 1014.9
20260510073652 12 350 0.0 0.0 0.00 0.03 0.00 75 1014.9
20260510072124 13 350 0.0 0.0 0.00 0.03 0.00 73 1014.8
20260510070619 13 350 0.0 0.0 0.00 0.03 0.00 72 1014.3
20260510065118 14 350 0.0 0.0 0.00 0.03 0.00 71 1013.8
20260510063633 15 348 0.0 0.0 0.00 0.03 0.00 70 1013.8
20260510062131 15 325 0.0 0.0 0.00 0.03 0.00 68 1014.0
20260510060627 15 342 0.0 0.0 0.00 0.03 0.00 68 1013.4
20260510055124 15 89 0.0 0.0 0.00 0.03 0.00 68 1013.2
20260510053639 15 74 0.0 0.0 0.00 0.03 0.00 70 1012.5
20260510052132 15 272 0.0 0.0 0.00 0.03 0.00 71 1012.9
20260510050631 15 50 0.0 0.0 0.00 0.03 0.00 72 1012.6
20260510045145 15 53 0.0 0.0 0.00 0.03 0.03 72 1012.5
20260510043643 15 73 0.0 0.0 0.00 0.03 0.03 71 1012.3
20260510042116 15 73 0.0 0.0 0.00 0.03 0.03 72 1011.7
20260510040652 15 25 0.0 0.0 0.00 0.03 0.03 73 1012.1
20260510035149 16 25 0.0 0.0 0.00 0.03 0.03 73 1011.8
20260510033723 16 23 0.0 0.0 0.00 0.03 0.03 74 1011.4
20260510032234 16 88 0.0 0.0 0.00 0.03 0.03 74 1011.2
20260510030630 16 89 0.0 0.0 0.00 0.03 0.03 74 1010.9
20260510025143 16 89 0.0 0.0 0.00 0.03 0.03 73 1010.3
20260510023617 16 82 0.0 0.0 0.00 0.03 0.03 71 1010.2
20260510022136 17 82 0.0 0.0 0.00 0.03 0.03 70 1009.6
20260510020632 17 82 0.0 0.0 0.00 0.03 0.03 69 1009.4
20260510015129 18 118 0.0 0.0 0.03 0.03 0.03 68 1009.4
20260510013644 18 117 0.0 1.6 0.03 0.03 0.03 66 1008.8
20260510012116 20 113 0.0 0.0 0.03 0.03 0.03 62 1008.7
20260510010616 21 115 0.0 1.6 0.03 0.03 0.03 58 1009.2
20260510005131 22 327 0.0 6.4 0.00 0.00 0.00 49 1010.5
20260510003630 22 260 0.0 3.2 0.00 0.00 0.00 44 1008.8
20260510002124 23 44 0.0 0.0 0.00 0.00 0.00 45 1007.5
20260510000700 23 47 0.0 0.0 0.00 0.00 0.00 45 1006.6
20260510000617 23 47 0.0 0.0 0.00 0.00 0.00 45 1006.6
20260509235116 24 92 0.0 0.0 0.00 0.00 0.00 45 1006.2
20260509233632 25 61 0.0 0.0 0.00 0.00 0.00 43 1006.3
20260509232210 26 296 0.0 0.0 0.00 0.00 0.00 42 1006.3
20260509232128 26 296 0.0 0.0 0.00 0.00 0.00 42 1006.3
20260509230703 27 132 0.0 0.0 0.00 0.00 0.00 39 1006.0
20260509225116 27 23 0.0 0.0 0.00 0.00 0.00 37 1005.9
20260509223616 27 53 0.0 0.0 0.00 0.00 0.00 38 1006.2
20260509222230 26 93 0.0 0.0 0.00 0.00 0.00 39 1006.6
20260509222127 26 93 0.0 0.0 0.00 0.00 0.00 39 1006.6